Regional Weather Roundup
Issued by NWS

Home | Current Version | Previous Version | Graphics & Text | Print | Product List | Glossary On
Versions: 1 2 3 4 5 6 7 8 9 10 11 12 13 14 15 16 17 18 19 20 21 22 23 24 25 26 27 28 29 30 31 32 33 34 35 36 37 38 39 40 41 42 43 44 45 46 47 48 49 50
000
ASUS43 KDTX 230610
RWRMI
MICHIGAN HOURLY REGIONAL WEATHER ROUNDUP
NATIONAL WEATHER SERVICE DETROIT/PONTIAC MI
200 AM EDT THU MAR 23 2017

NOTE: "FAIR" INDICATES FEW OR NO CLOUDS BELOW 12,000 FEET WITH NO
SIGNIFICANT WEATHER AND/OR OBSTRUCTION TO VISIBILITY.

MIZ047>049-052>055-059>063-066>070-074>076-081>083-230700-
SOUTHEAST LOWER MICHIGAN

CITY           SKY/WX    TMP DP  RH WIND       PRES   REMARKS
ADRIAN         CLEAR     23  16  74 CALM      30.54S
6HR MIN TEMP:  23; 6HR MAX TEMP:  32;

ALMA           CLEAR     24  17  77 S5        30.53S WCI  18
ANN ARBOR      CLEAR     23  16  74 E3        30.53S
BAD AXE        CLEAR     19  15  84 S6        30.54R WCI  11
6HR MIN TEMP:  18; 6HR MAX TEMP:  26;

CARO           CLEAR     19  11  71 CALM      30.53S
DETROIT CITY   CLEAR     22  14  71 S3        30.56S
6HR MIN TEMP:  22; 6HR MAX TEMP:  29;

DETROIT        PTCLDY    25  15  66 CALM      30.55S
6HR MIN TEMP:  25; 6HR MAX TEMP:  31;

FLINT          CLEAR     20  13  74 S6        30.53F WCI  12
6HR MIN TEMP:  20; 6HR MAX TEMP:  29;

GROSSE ILE     CLEAR     24  15  69 E3        30.54S
6HR MIN TEMP:  24; 6HR MAX TEMP:  28;

HILLSDALE      CLEAR     23  18  80 SE5       30.49S WCI  17
HOWELL         CLEAR     24  16  69 CALM      30.52S
6HR MIN TEMP:  22; 6HR MAX TEMP:  30;


CITY           SKY/WX    TMP DP  RH WIND       PRES   REMARKS
JACKSON        CLEAR     24  15  68 SE7       30.52R WCI  16
6HR MIN TEMP:  24; 6HR MAX TEMP:  31;

LAMBERTVILLE   CLEAR     25  17  72 CALM      30.54S
6HR MIN TEMP:  25; 6HR MAX TEMP:  31;

LANSING        CLEAR     25  11  55 SE5       30.53R WCI  19
6HR MIN TEMP:  23; 6HR MAX TEMP:  30;

LAPEER         FAIR      19  16  86 CALM      30.53S
6HR MIN TEMP:  19; 6HR MAX TEMP:  29;

MASON          CLEAR     26  19  76 S6        30.52S WCI  19
MONROE         CLEAR     27  18  70 E5        30.54S WCI  21
6HR MIN TEMP:  27; 6HR MAX TEMP:  29;

MT. CLEMENS    CLEAR     20  16  84 CALM      30.53F
6HR MIN TEMP:  20; 6HR MAX TEMP:  27;

PONTIAC        CLEAR     23  16  74 SE3       30.52S
6HR MIN TEMP:  22; 6HR MAX TEMP:  32;

PORT HOPE        N/A     20  15  81 S3        30.53S
6HR MIN TEMP:  19; 6HR MAX TEMP:  23;

PORT HURON     CLEAR     16  12  86 CALM      30.55F
TRI CITIES     CLEAR     24  13  62 S6        30.53S WCI  17
6HR MIN TEMP:  23; 6HR MAX TEMP:  29;

MIDLAND        FAIR      25  11  57 CALM      30.52S
6HR MIN TEMP:  24; 6HR MAX TEMP:  31;

TROY           CLEAR     25  15  66 CALM      30.56F
SAGINAW HB     CLEAR     23  12  63 S5        30.53S WCI  17
$$
MIZ043>046-050>051-056>058-064>065-071>073-077>080-230700-
SOUTHWEST LOWER MICHIGAN

CITY           SKY/WX    TMP DP  RH WIND       PRES   REMARKS
BATTLE CREEK   CLEAR     28  11  48 E6        30.50S WCI  22
6HR MIN TEMP:  28; 6HR MAX TEMP:  34;

BENTON HARBOR  CLEAR     22  17  81 CALM      30.50R
6HR MIN TEMP:  22; 6HR MAX TEMP:  30;

BIG RAPIDS     CLEAR     20  15  81 CALM      30.49S
6HR MIN TEMP:  20; 6HR MAX TEMP:  32;

COLDWATER      CLEAR     26  16  66 E5        30.50S WCI  20
6HR MIN TEMP:  25; 6HR MAX TEMP:  33;

FREMONT        FAIR      25  17  73 E3        30.50S
HOLLAND        CLEAR     24  18  77 E3        30.51S
6HR MIN TEMP:  24; 6HR MAX TEMP:  31;

GRAND RAPIDS   CLEAR     26  11  52 SE7       30.51R WCI  18
6HR MIN TEMP:  25; 6HR MAX TEMP:  33;

IONIA          FAIR      24  13  64 SE7       30.51S WCI  16
6HR MIN TEMP:  24; 6HR MAX TEMP:  30;

KALAMAZOO      CLEAR     27  11  51 E5        30.50S WCI  22
6HR MIN TEMP:  27; 6HR MAX TEMP:  34;

LUDINGTON      CLEAR     18  17  93 CALM      30.50F
6HR MIN TEMP:  18; 6HR MAX TEMP:  26;

MARSHALL       CLEAR     26  13  59 SE3       30.51R
6HR MIN TEMP:  25; 6HR MAX TEMP:  32;

MOUNT PLEASANT CLEAR     23  13  65 CALM      30.51S
6HR MIN TEMP:  23; 6HR MAX TEMP:  31;

MUSKEGON       CLEAR     24  16  71 SE3       30.51F
6HR MIN TEMP:  24; 6HR MAX TEMP:  28;

SOUTH HAVEN    CLEAR     22  19  86 E3        30.50S
$$
MIZ016>042-230700-
NORTHERN LOWER MICHIGAN

CITY           SKY/WX    TMP DP  RH WIND       PRES   REMARKS
ALPENA         CLEAR     15  12  88 CALM      30.53S
6HR MIN TEMP:  14; 6HR MAX TEMP:  24;

BEAVER ISLAND  CLEAR     15  12  87 CALM      30.50S
6HR MIN TEMP:  15; 6HR MAX TEMP:  24;

BELLAIRE       CLEAR     16  13  89 CALM      30.53S
6HR MIN TEMP:  16; 6HR MAX TEMP:  26;

CADILLAC       CLEAR     16   9  75 CALM      30.46S
CHARLEVOIX     CLEAR     19  13  78 CALM      30.54R
6HR MIN TEMP:  17; 6HR MAX TEMP:  25;

FRANKFORT      CLEAR     18  14  85 CALM      30.50F
GAYLORD        CLEAR     19   9  65 CALM      30.47S
6HR MIN TEMP:  18; 6HR MAX TEMP:  27;

GRAYLING       CLEAR     12   8  82 CALM      30.49S
HARBOR SPRINGS CLEAR     16  13  89 NE3       30.51S
HOUGHTON LAKE  CLEAR     17  12  80 CALM      30.49S
6HR MIN TEMP:  16; 6HR MAX TEMP:  30;

MANISTEE       CLEAR     17  14  88 E3        30.51S
OSCODA         CLEAR     13   7  78 CALM      30.53S
6HR MIN TEMP:  13; 6HR MAX TEMP:  25;

PELLSTON       CLEAR     13   8  81 CALM      30.51F
6HR MIN TEMP:  13; 6HR MAX TEMP:  26;

ROGERS CITY    CLEAR     20  13  74 S5        30.53F WCI  14
TRAVERSE CITY  CLEAR     18  12  77 CALM      30.51S
6HR MIN TEMP:  18; 6HR MAX TEMP:  27;

$$
MIZ007>008-015-230700-
EASTERN UPPER MICHIGAN

CITY           SKY/WX    TMP DP  RH WIND       PRES   REMARKS
KINROSS        CLEAR     14  10  84 CALM      30.49F
6HR MIN TEMP:  14; 6HR MAX TEMP:  20;

MACKINAC ISLAN CLEAR     18  15  88 SW3       30.49F
6HR MIN TEMP:  18; 6HR MAX TEMP:  23;

NEWBERRY       CLOUDY    20  18  94 S3        30.46F
6HR MIN TEMP:  18; 6HR MAX TEMP:  25;

S. S. MARIE    CLEAR     17  11  77 E3        30.49F
6HR MIN TEMP:  16; 6HR MAX TEMP:  23;

MUNISING         N/A     24  15  68 S9        30.45F WCI  14
6HR MIN TEMP:  24; 6HR MAX TEMP:  27;

$$
MIZ004>006-011>014-085-230700-
CENTRAL UPPER MICHIGAN

CITY           SKY/WX    TMP DP  RH WIND       PRES   REMARKS
MANISTIQUE     CLOUDY    18  16  93 CALM      30.48S
ESCANABA       CLOUDY    20  17  88 W3        30.48F
6HR MIN TEMP:  18; 6HR MAX TEMP:  26;

MENOMINEE        N/A    N/A N/A N/A MISG        N/A
SAWYER-GWINN   PTCLDY    20  14  76 S8        30.42S WCI  10
6HR MIN TEMP:  20; 6HR MAX TEMP:  26;

$$
MIZ001>003-009>011-084-230700-
WESTERN UPPER MICHIGAN

CITY           SKY/WX    TMP DP  RH WIND       PRES   REMARKS
IRON MOUNTAIN  CLEAR     20  14  77 SE6       30.41F WCI  12
6HR MIN TEMP:  20; 6HR MAX TEMP:  31;

HOUGHTON       CLOUDY    23  16  74 E5        30.36F WCI  17
6HR MIN TEMP:  23; 6HR MAX TEMP:  25;

COPPER HARBOR    N/A     27  20  75 SW8       30.38F WCI  19
6HR MIN TEMP:  20; 6HR MAX TEMP:  27;

IRONWOOD       CLOUDY    30  11  45 S8        30.32F WCI  22
6HR MIN TEMP:  29; 6HR MAX TEMP:  35;

$$

ABBREVIATIONS USED IN REMARKS
   TC - TEMPERATURE IN CELSIUS
  WCI - WIND CHILL INDEX
   HX - HEAT INDEX
  VSB - VISIBILITY





USA.gov is the U.S. government's official web portal to all federal, state and local government web resources and services.